KMSP

Minneapolis-St Paul International/Wold-Chamberlain Airport

ICAO Code KMSP
IATA Code MSP
Name Minneapolis-St Paul International/Wold-Chamberlain Airport
Location Minneapolis, Minnesota, US
Elevation 841 Feet / 256.3 Meters
Latitude 44.88199997
Longitude -93.22180176
METAR KMSP 240615Z 12007KT 1 1/4SM -SN BR OVC023 M13/M16 A2963 RMK AO2 P0001 T11331156
Extra information Display Charts and CFS
Display NOTAMS
Runway Length Width Surface Elevation
04 11006 ft 150 ft CON 832 ft
12L 8000 ft 150 ft PEM 838 ft
12R 10000 ft 200 ft PEM 841 ft
17 8000 ft 150 ft CON 840 ft
22 11006 ft 150 ft CON 827 ft
30R 8000 ft 150 ft PEM 819 ft
30L 10000 ft 200 ft PEM 813 ft
35 8000 ft 150 ft CON 833 ft